Regional Weather Roundup
Issued by NWS

Home | Current Version | Previous Version | Text Only | Print | Product List | Glossary On
Versions: 1 2 3 4 5 6 7 8 9 10 11 12 13 14 15 16 17 18 19 20 21 22 23 24 25 26 27 28 29 30 31 32 33 34 35 36 37 38 39 40 41 42 43 44 45 46 47 48 49 50
000
ASUS43 KDTX 191710
RWRMI
MICHIGAN HOURLY REGIONAL WEATHER ROUNDUP
NATIONAL WEATHER SERVICE DETROIT/PONTIAC MI
100 PM EDT THU APR 19 2018

NOTE: "FAIR" INDICATES FEW OR NO CLOUDS BELOW 12,000 FEET WITH NO
SIGNIFICANT WEATHER AND/OR OBSTRUCTION TO VISIBILITY.

MIZ047>049-052>055-059>063-066>070-074>076-081>083-191800-
SOUTHEAST LOWER MICHIGAN

CITY           SKY/WX    TMP DP  RH WIND       PRES   REMARKS
ADRIAN         FAIR      47  25  42 N15G25    30.17R
ALMA           FAIR      46  26  46 NW13      30.18R
ANN ARBOR      FAIR      48  22  35 NW18G24   30.13S
BAD AXE        FAIR      38  26  60 N14       30.15R WCI  30
CARO           FAIR      43  27  52 N14       30.14S
DETROIT CITY   FAIR      45  25  45 NW14      30.13R
DETROIT        FAIR      48  23  37 NW18      30.13R
FLINT          FAIR      44  26  49 NW20      30.14S
GROSSE ILE     FAIR      48  25  40 NW13G18   30.13R
HILLSDALE      FAIR      45  25  45 NW16G22   30.17R
HOWELL         FAIR      45  28  51 NW17      30.15R

CITY           SKY/WX    TMP DP  RH WIND       PRES   REMARKS
JACKSON        FAIR      47  25  42 W12G21    30.17R
LAMBERTVILLE   FAIR      48  26  42 W10G20    30.15S
LANSING        FAIR      47  29  49 NW17      30.18R
LAPEER         FAIR      43  25  49 N12       30.13R
MASON          FAIR      48  21  35 NW10      30.16S
MONROE         FAIR      47  26  44 NW12G24   30.13S
MT. CLEMENS    MOSUNNY   45  29  54 N18G29    30.11
PONTIAC        FAIR      44  23  43 NW21      30.11R
PORT HOPE        N/A     35  27  72 N15G24    30.13R WCI  25
PORT HURON     CLOUDY    39  25  56 NW15G26   30.13R WCI  31
TRI CITIES     FAIR      46  27  47 NW23      30.16R
MIDLAND        FAIR      44  25  46 NW13G25   30.15S
TROY           FAIR      46  22  38 N13G22    30.14R
SAGINAW HB     FAIR      45  28  53 NW18      30.15R
$$
MIZ043>046-050>051-056>058-064>065-071>073-077>080-191800-
SOUTHWEST LOWER MICHIGAN

CITY           SKY/WX    TMP DP  RH WIND       PRES   REMARKS
BATTLE CREEK   FAIR      47  26  44 NW13G23   30.21R
BENTON HARBOR  FAIR      42  31  64 NW10G24   30.30R
BIG RAPIDS     FAIR      44  10  25 N15G22    30.21R
COLDWATER      FAIR      47  27  46 NW13      30.20R
FREMONT        FAIR      43  16  34 NW14      30.24R
HOLLAND        FAIR      43  32  65 NW12      30.26R
GRAND RAPIDS   FAIR      47  30  51 NW10      30.21R
IONIA          FAIR      48  20  32 N15G23    30.19R
KALAMAZOO      FAIR      49  24  37 NW17G25   30.22R
LUDINGTON      FAIR      38  29  69 N14G21    30.28R WCI  30
MARSHALL       FAIR      47  22  38 NW9G17    30.19R
MOUNT PLEASANT FAIR      46  20  35 NW9G23    30.17S
MUSKEGON       FAIR      46  25  43 N15       30.25R
SOUTH HAVEN    FAIR      42  32  67 NW15G24   30.28R
$$
MIZ016>042-191800-
NORTHERN LOWER MICHIGAN

CITY           SKY/WX    TMP DP  RH WIND       PRES   REMARKS
ALPENA         FAIR      37  21  52 NW13G21   30.16S WCI  29
BEAVER ISLAND  FAIR      38  26  61 NW12G18   30.25S WCI  31
BELLAIRE       FAIR      39  21  48 NW8       30.25R WCI  33
CADILLAC       FAIR      38  19  46 N13G21    30.20S WCI  30
CHARLEVOIX     FAIR      36  27  72 NW8       30.28R WCI  29
FRANKFORT      FAIR      39  28  63 NW8       30.29R WCI  33
GAYLORD        FAIR      39  18  42 NW9G20    30.17R WCI  33
GRAYLING       FAIR      38  21  51 NW12      30.17R WCI  30
HARBOR SPRINGS FAIR      39  19  45 NW15G21   30.22R WCI  31
HOUGHTON LAKE  FAIR      40  20  44 NW17      30.17R WCI  31
MANISTEE       FAIR      38  26  62 NW13      30.29R WCI  30
OSCODA         FAIR      38  19  46 N17       30.14R WCI  29
PELLSTON       FAIR      38  22  52 NW16      30.21S WCI  29
ROGERS CITY    FAIR      35  22  58 NW14G22   30.19R WCI  26
TRAVERSE CITY  FAIR      38  26  62 N15       30.26R WCI  29
$$
MIZ007>008-015-191800-
EASTERN UPPER MICHIGAN

CITY           SKY/WX    TMP DP  RH WIND       PRES   REMARKS
KINROSS        FAIR      33  21  61 NW17      30.19S WCI  22
MACKINAC ISLAN FAIR      41  19  41 N14G20    30.20S
NEWBERRY       FAIR      37  17  46 NW10G24   30.24S WCI  29
S. S. MARIE    FAIR      37  23  56 NW14      30.19S WCI  28
MUNISING         N/A    N/A N/A N/A MISG      30.34R
$$
MIZ004>006-011>014-085-191800-
CENTRAL UPPER MICHIGAN

CITY           SKY/WX    TMP DP  RH WIND       PRES   REMARKS
MANISTIQUE     FAIR      40  17  40 NW12G22   30.27R WCI  32
ESCANABA       FAIR      46  12  25 N15G23    30.30R
MENOMINEE      FAIR      48  12  23 N8G17     30.32R
SAWYER-GWINN   SUNNY     37  12  35 N14       30.33R WCI  29
$$
MIZ001>003-009>011-084-191800-
WESTERN UPPER MICHIGAN

CITY           SKY/WX    TMP DP  RH WIND       PRES   REMARKS
IRON MOUNTAIN  FAIR      47  15  27 N13       30.30R
HOUGHTON       FAIR      38  20  48 NW12      30.36R WCI  30
COPPER HARBOR    N/A     35  26  69 N13       30.36R WCI  26
IRONWOOD       FAIR      41  16  36 NW6       30.40S
$$

ABBREVIATIONS USED IN REMARKS
   TC - TEMPERATURE IN CELSIUS
  WCI - WIND CHILL INDEX
   HX - HEAT INDEX
  VSB - VISIBILITY





USA.gov is the U.S. government's official web portal to all federal, state and local government web resources and services.